Temp
-10 -11 -12 -12 -13 -13 -12 -13 -13 -13 -13 -13 -13 -14 -14 -15 -15 -15 -15 -15 -14 -14 -14 -14 -15 -16 -14 -14 -14 -14 -14 -14
-10 -11 -11 -12 -12 -13 -12 -12 -13 -13 -12 -12 -12 -13 -13 -14 -14 -15 -15 -15 -15 -15 -16 -15 -16 -15 -15 -14 -14 -14 -14 -15
-11 -11 -11 -11 -12 -12 -12 -12 -13 -12 -13 -12 -13 -13 -13 -13 -13 -14 -14 -15 -15 -16 -15 -15 -15 -15 -15 -15 -15 -15 -15 -15
-12 -12 -12 -12 -12 -12 -12 -13 -13 -13 -13 -13 -13 -13 -13 -13 -13 -13 -14 -14 -15 -16 -15 -15 -15 -15 -15 -15 -15 -15 -15 -15
-12 -12 -12 -12 -12 -12 -12 -12 -13 -13 -13 -13 -13 -13 -13 -13 -13 -14 -14 -14 -14 -14 -15 -15 -16 -16 -15 -15 -16 -16 -15 -15
-12 -12 -12 -12 -12 -12 -12 -13 -13 -13 -13 -13 -13 -14 -14 -13 -14 -14 -14 -14 -15 -15 -15 -15 -15 -16 -17 -16 -15 -16 -15 -15
-12 -13 -13 -13 -13 -12 -12 -13 -13 -14 -14 -14 -15 -14 -14 -14 -14 -15 -15 -15 -15 -15 -15 -15 -15 -15 -16 -17 -16 -16 -16 -16
-13 -12 -13 -13 -13 -13 -13 -13 -14 -15 -15 -15 -15 -15 -15 -14 -15 -15 -15 -15 -16 -15 -15 -15 -16 -16 -17 -17 -17 -17 -17 -17
-14 -13 -13 -13 -14 -14 -14 -14 -14 -14 -15 -15 -16 -17 -16 -16 -17 -17 -17 -17 -17 -16 -16 -16 -16 -17 -17 -18 -18 -17 -17 -17
-14 -14 -14 -14 -14 -15 -14 -14 -15 -15 -15 -16 -16 -16 -16 -17 -17 -18 -18 -18 -18 -18 -18 -18 -18 -18 -18 -19 -18 -18 -18 -17
-14 -15 -15 -15 -16 -16 -16 -16 -16 -16 -17 -17 -17 -17 -17 -17 -18 -18 -18 -19 -19 -19 -18 -19 -19 -19 -18 -18 -18 -18 -18 -18
-15 -15 -16 -16 -16 -17 -17 -17 -17 -17 -18 -18 -19 -19 -19 -19 -18 -18 -18 -18 -18 -18 -19 -19 -19 -18 -18 -18 -18 -18 -18 -18
-17 -17 -17 -17 -18 -18 -18 -18 -19 -19 -19 -20 -20 -19 -19 -18 -18 -18 -19 -19 -19 -19 -20 -20 -20 -20 -20 -19 -19 -18 -19 -19
-18 -18 -18 -18 -19 -19 -19 -20 -20 -19 -19 -19 -20 -19 -19 -19 -19 -19 -20 -20 -20 -20 -20 -20 -20 -20 -20 -20 -20 -20 -20 -20
-18 -19 -19 -19 -19 -19 -20 -20 -20 -20 -20 -20 -20 -20 -20 -20 -20 -20 -21 -21 -21 -22 -22 -21 -21 -21 -21 -21 -21 -21 -21 -21
-19 -19 -20 -20 -20 -20 -20 -20 -20 -20 -21 -21 -21 -21 -21 -21 -21 -22 -22 -22 -23 -23 -23 -23 -22 -23 -22 -23 -22 -22 -22 -22
-21 -21 -21 -20 -20 -20 -21 -21 -21 -21 -21 -21 -21 -22 -22 -23 -23 -23 -23 -23 -23 -23 -23 -23 -23 -23 -23 -24 -22 -22 -22 -23
-21 -21 -21 -21 -21 -21 -21 -21 -21 -22 -22 -22 -22 -23 -23 -23 -23 -24 -24 -24 -24 -24 -24 -24 -24 -24 -24 -24 -24 -23 -23 -23
-21 -22 -22 -23 -22 -22 -22 -22 -22 -22 -22 -23 -23 -23 -23 -24 -24 -24 -24 -24 -24 -24 -24 -24 -24 -24 -24 -24 -24 -24 -24 -24
Height
5811 5809 5807 5805 5804 5803 5802 5801 5799 5791 5789 5788 5785 5781 5782 5785 5787 5786 5786 5786 5787 5788 5788 5789 5789 5787 5787 5787 5786 5784 5783 5783
5803 5803 5800 5799 5798 5797 5796 5794 5791 5787 5782 5779 5779 5776 5776 5776 5775 5776 5777 5777 5778 5778 5780 5780 5778 5778 5777 5777 5776 5777 5776 5776
5795 5795 5794 5792 5791 5790 5788 5785 5784 5780 5779 5777 5774 5772 5771 5768 5766 5766 5766 5765 5767 5770 5770 5770 5770 5770 5770 5769 5768 5767 5767 5768
5788 5787 5787 5786 5785 5783 5780 5779 5778 5775 5771 5771 5768 5766 5761 5759 5759 5759 5758 5758 5758 5760 5761 5761 5761 5760 5760 5760 5760 5759 5757 5758
5784 5783 5781 5780 5779 5778 5775 5771 5769 5767 5764 5762 5760 5760 5759 5753 5751 5752 5752 5751 5749 5749 5749 5750 5749 5749 5748 5748 5748 5747 5747 5746
5779 5777 5775 5773 5772 5770 5767 5765 5762 5759 5756 5754 5753 5753 5753 5752 5742 5745 5745 5744 5742 5740 5739 5740 5739 5738 5738 5738 5737 5736 5735 5735
5771 5770 5769 5767 5764 5762 5759 5756 5753 5751 5749 5747 5745 5745 5743 5740 5736 5733 5734 5733 5732 5732 5730 5728 5727 5726 5725 5725 5725 5724 5723 5723
5761 5760 5759 5758 5756 5753 5751 5748 5744 5741 5739 5737 5736 5734 5732 5729 5728 5724 5722 5720 5720 5719 5717 5717 5716 5713 5714 5713 5713 5712 5711 5711
5751 5750 5748 5746 5745 5744 5741 5738 5734 5730 5726 5724 5723 5721 5719 5716 5713 5712 5710 5708 5707 5707 5705 5704 5701 5701 5701 5699 5700 5700 5698 5698
5739 5736 5735 5733 5732 5731 5729 5727 5723 5721 5717 5713 5709 5706 5705 5702 5699 5697 5694 5693 5692 5691 5691 5690 5689 5688 5688 5687 5687 5686 5685 5684
5727 5725 5723 5720 5719 5717 5716 5713 5710 5707 5703 5700 5697 5695 5693 5690 5687 5684 5683 5681 5678 5677 5675 5674 5673 5673 5672 5671 5671 5670 5669 5668
5715 5713 5711 5710 5707 5704 5703 5700 5697 5694 5691 5688 5685 5683 5680 5677 5674 5670 5667 5664 5663 5660 5658 5657 5655 5654 5653 5652 5651 5651 5650 5649
5700 5699 5698 5696 5694 5690 5688 5685 5682 5680 5679 5677 5674 5671 5667 5663 5659 5656 5652 5649 5646 5644 5641 5640 5637 5635 5633 5631 5631 5630 5630 5629
5689 5686 5686 5683 5680 5677 5675 5673 5671 5667 5665 5662 5659 5656 5652 5648 5645 5641 5638 5635 5632 5629 5626 5622 5620 5617 5615 5613 5611 5609 5608 5608
5678 5676 5673 5670 5668 5664 5661 5657 5654 5650 5646 5644 5640 5638 5636 5633 5630 5628 5624 5621 5618 5614 5611 5608 5605 5600 5595 5590 5588 5587 5586 5584
5664 5663 5662 5659 5656 5653 5648 5643 5639 5635 5633 5630 5626 5623 5619 5617 5615 5612 5610 5607 5604 5601 5598 5594 5590 5586 5580 5576 5574 5571 5568 5566
5652 5648 5645 5641 5639 5636 5632 5628 5624 5622 5619 5615 5611 5608 5605 5603 5602 5600 5598 5595 5593 5590 5586 5581 5577 5573 5567 5561 5557 5555 5550 5550
5635 5631 5626 5623 5621 5619 5616 5613 5609 5606 5604 5601 5598 5595 5593 5591 5589 5587 5586 5584 5581 5577 5574 5570 5565 5561 5555 5549 5543 5537 5535 5533
5619 5616 5612 5609 5606 5604 5601 5599 5596 5593 5590 5588 5586 5583 5581 5579 5576 5575 5573 5570 5567 5565 5561 5557 5552 5548 5543 5536 5528 5522 5518 5517
Wind_Speed
33 32 31 30 32 33 35 31 36 42 43 41 37 35 36 38 39 43 43 41 40 37 38 38 32 35 35 36 35 34 36 36
32 31 30 27 29 29 30 31 34 41 44 39 36 34 38 39 40 46 46 42 40 38 41 38 35 34 33 36 37 37 37 37
31 31 30 28 25 25 28 32 33 36 38 43 38 37 37 41 45 47 48 48 43 39 42 38 35 32 35 35 36 36 39 39
27 26 27 25 27 27 31 33 34 36 38 39 39 38 43 46 37 36 38 43 38 39 38 36 35 34 33 35 37 38 41 41
23 25 26 28 29 32 33 36 37 37 38 41 42 41 43 33 26 27 37 36 35 37 36 36 36 36 36 37 40 41 43 44
35 31 30 25 29 32 33 36 38 41 44 46 46 46 44 45 42 43 45 43 43 41 41 40 40 38 39 40 42 43 43 44
36 35 31 32 32 33 35 37 41 45 45 46 47 47 50 54 60 48 52 53 43 47 47 47 46 47 43 40 41 43 44 46
41 43 42 38 34 37 41 45 45 42 43 46 46 49 53 57 57 57 56 57 55 54 50 47 50 47 44 41 41 42 43 46
41 44 46 43 39 38 42 47 49 52 55 56 52 48 53 51 54 52 48 52 48 51 53 54 51 48 50 47 42 44 45 45
47 48 48 43 42 44 45 48 51 53 55 57 59 59 59 61 58 57 57 58 61 61 56 51 51 51 48 47 50 51 50 50
51 51 45 43 42 45 49 52 54 57 58 59 59 60 62 65 62 57 54 52 54 56 57 58 57 58 58 59 60 60 60 58
51 49 47 49 49 51 54 55 56 57 56 55 55 56 58 60 61 62 64 64 64 65 64 61 59 59 61 64 62 65 62 59
51 54 55 56 58 57 54 53 53 52 52 53 60 61 62 64 65 66 64 61 60 59 58 57 56 56 59 62 65 67 67 65
51 52 58 60 55 53 51 56 57 58 59 59 57 57 58 58 58 58 57 57 57 56 57 58 60 60 63 65 66 66 65 67
51 51 55 55 54 55 59 61 61 64 61 60 56 53 52 53 53 52 52 53 52 50 51 52 55 60 59 58 57 56 58 61
49 55 56 60 64 64 68 70 70 62 58 57 55 53 52 52 50 49 46 44 40 41 41 46 53 50 50 49 48 52 52 54
57 60 63 61 59 59 58 58 56 53 55 54 54 53 51 48 47 43 40 39 39 40 39 44 46 49 50 50 50 49 50 53
58 57 53 52 53 53 52 53 54 55 54 53 51 47 48 46 38 37 38 40 39 41 43 45 49 49 49 50 50 50 48 46
54 52 51 50 51 51 52 53 53 52 49 48 49 48 45 42 40 38 40 42 41 42 43 45 48 52 53 52 53 50 48 38
Wind_Direction
290 287 284 279 281 280 282 284 282 271 274 276 272 253 241 246 250 254 259 263 267 267 272 278 282 275 277 276 274 273 278 286
286 285 284 279 277 282 282 280 283 279 271 269 270 252 250 248 251 258 260 261 265 267 270 276 276 281 272 272 273 275 276 280
289 290 286 283 284 285 283 279 280 279 290 281 271 273 272 262 262 260 259 258 262 269 271 276 276 273 270 269 271 273 275 276
299 296 294 290 288 282 281 283 281 283 283 282 283 287 269 266 276 275 279 267 268 271 276 278 279 276 274 273 274 274 274 275
320 314 311 307 296 292 286 283 282 281 281 282 283 287 289 268 271 280 295 285 277 279 276 277 278 277 278 279 272 271 274 276
314 312 313 302 290 288 284 282 280 279 279 282 284 283 283 274 286 293 293 291 282 275 274 276 273 272 279 280 282 282 278 277
309 311 311 302 292 283 278 273 275 274 281 285 289 289 283 283 288 288 292 288 282 282 274 274 274 276 278 281 280 281 283 282
304 304 304 302 288 280 276 273 269 271 274 279 284 285 286 283 286 286 286 288 282 280 276 275 276 274 277 279 280 280 281 282
300 297 296 295 289 277 275 269 267 269 273 277 280 278 282 285 287 290 290 287 290 285 282 275 275 274 275 273 280 281 281 281
295 292 290 287 284 277 274 274 273 271 272 274 276 281 283 287 291 291 293 292 293 293 290 287 283 282 277 282 281 278 279 280
287 287 284 281 282 278 279 278 277 278 279 279 279 279 280 283 287 288 285 284 286 286 289 290 284 286 284 282 282 277 281 284
288 286 283 285 284 285 284 281 279 279 280 281 285 287 286 285 286 286 289 290 289 289 291 290 289 285 285 286 284 282 279 276
294 290 284 286 288 288 287 284 283 283 282 280 285 288 286 286 286 288 289 290 290 289 287 286 284 282 282 280 278 277 276 271
287 283 285 287 289 290 283 282 283 285 288 288 287 286 285 286 286 286 286 286 287 286 286 287 287 285 284 283 280 278 273 268
286 284 287 284 289 286 283 282 285 293 293 291 289 286 284 283 284 286 286 287 289 290 292 294 295 296 295 289 284 279 273 267
289 287 289 283 287 284 282 286 288 290 287 285 284 284 285 287 288 288 289 286 285 290 294 299 299 301 293 286 282 287 277 274
281 284 287 286 286 285 285 284 285 284 282 281 283 285 285 285 286 288 280 279 284 286 291 298 300 301 305 308 290 290 277 269
285 286 287 287 285 283 283 282 280 277 278 279 280 281 282 284 283 278 274 277 282 281 290 294 297 301 304 306 302 293 290 273
288 288 287 286 286 284 282 279 278 278 280 280 282 284 283 283 276 275 277 279 282 286 287 292 296 299 302 307 312 300 290 269